{"data":{"norad_id":61736,"epoch":"2026-05-25T03:52:07.807008Z","epoch_age_seconds":54427,"freshness":"FRESH","line1":"1 61736U 24199B   26145.16120147  .00000046  00000+0  40258-4 0  9990","line2":"2 61736  98.7203  18.4840 0001806  62.3121 297.8240 14.22752613127554","mean_motion":14.22752613,"eccentricity":0.0001806,"inclination_deg":98.7203,"raan_deg":18.484,"arg_perigee_deg":62.3121,"mean_anomaly_deg":297.824,"bstar":4.0258e-5,"rev_number":12755,"period_min":101.21225481102,"perigee_km":814.75941487454,"apogee_km":817.35795835654,"semimajor_km":7194.1956866155,"source":"CELESTRAK","updated_at":"2026-05-25T13:38:12.837830Z"}}